Flag for Germany Weather past 2 weeks in Strausberg, Brandenburg, Germany

Now
52 °F

Clear.


Feels Like: 51 °F
Forecast: 55 / 72 °F
Wind: 3 mph from East

Location: Berlin-Schoenefeld

Current Time: Aug 29, 2014 at 5:55:46 AM

Latest Report: Aug 29, 2014 at 5:20 AM


Visibility: 10 mi

Pressure: 29.98 "Hg

Humidity: 88%

Dew point: 48 °F

Location of StrausbergLocation

Historic Weather in Strausberg — Graph

°F

Strausberg temperature yesterday

Maximum temperature yesterday: 73 °F (at 1:50 PM)
Minimum temperature yesterday: 45 °F (at 6:20 AM)
Average temperature yesterday: 61 °F

Past Weeks' High & Low Weather Summary

 TemperatureHumidityPressure
High73 °F (Aug 28, 1:50 PM)100% (Aug 14, 5:20 AM)30.07 "Hg (Aug 14, 5:20 AM)
Low43 °F (Aug 25, 5:20 AM)29% (Aug 28, 5:50 PM)29.62 "Hg (Aug 18, 2:50 PM)
Average59 °F70%29.88 "Hg
* Reported Aug 14 4:20 AM — Aug 29 4:50 AM, Strausberg, Weather by CustomWeather, © 2014

Note: Actual official high and low records may vary slightly from our data, if they occured in-between our weather recording intervals... More about our weather records

Advertising

Strausberg weather history for previous 24 hours

 ConditionsComfort  
Time TempWeatherWind HumidityBarometerVisibility
4:50 AM
Aug 29
52 °FClear.5 mph88%29.98 "Hg10 mi
4:20 AM52 °FClear.3 mph88%29.98 "Hg10 mi
3:50 AM52 °FClear.3 mph88%29.98 "Hg10 mi
3:20 AM52 °FClear.3 mph82%29.98 "Hg10 mi
2:50 AM52 °FClear.2 mph82%30.01 "Hg10 mi
2:20 AM52 °FClear.3 mph88%30.01 "Hg10 mi
1:50 AM52 °FClear.3 mph82%30.01 "Hg10 mi
1:20 AM52 °FClear.3 mph82%30.01 "Hg10 mi
12:50 AM54 °FClear.3 mph82%30.01 "Hg10 mi
12:20 AM54 °FClear.3 mph77%30.01 "Hg10 mi
11:50 PM
Aug 28
54 °FClear.3 mph77%30.01 "Hg10 mi
11:20 PM55 °FClear.3 mph72%30.01 "Hg10 mi
10:50 PM57 °FClear.3 mph67%30.01 "Hg10 mi
10:20 PM57 °FClear.2 mph63%30.01 "Hg10 mi
9:50 PM61 °FClear.2 mph59%30.01 "Hg10 mi
9:20 PM63 °FClear.5 mph52%30.01 "Hg10 mi
8:50 PM64 °FSunny.3 mph49%30.01 "Hg10 mi
8:20 PM66 °FSunny.5 mph46%30.01 "Hg10 mi
7:50 PM66 °FSunny.5 mph46%30.01 "Hg10 mi
7:20 PM68 °FSunny.6 mph40%30.01 "Hg10 mi
6:50 PM72 °FSunny.6 mph36%30.01 "Hg10 mi
6:20 PM72 °FSunny.6 mph31%30.01 "Hg10 mi
5:50 PM73 °FSunny.8 mph29%30.01 "Hg10 mi
5:20 PM73 °FPassing clouds.6 mph31%30.01 "HgN/A
4:50 PM73 °FSunny.6 mph31%30.01 "Hg10 mi
4:20 PM73 °FSunny.7 mph33%30.04 "Hg10 mi
3:50 PM72 °FSunny.10 mph31%30.04 "Hg10 mi
3:20 PM72 °FSunny.7 mph33%30.04 "Hg10 mi
2:50 PM73 °FSunny.9 mph31%30.04 "Hg10 mi
2:20 PM73 °FSunny.8 mph31%30.04 "Hg10 mi
1:50 PM73 °FPassing clouds.7 mph31%30.04 "HgN/A
1:20 PM72 °FSunny.9 mph36%30.07 "Hg10 mi
12:50 PM70 °FSunny.9 mph38%30.07 "Hg10 mi
12:20 PM70 °FSunny.9 mph35%30.07 "Hg10 mi
11:50 AM68 °FSunny.8 mph40%30.07 "Hg10 mi
11:20 AM70 °FSunny.8 mph43%30.07 "Hg10 mi
10:50 AM66 °FPassing clouds.6 mph49%30.07 "HgN/A
10:20 AM64 °FSunny.7 mph56%30.07 "Hg10 mi
9:50 AM63 °FSunny.6 mph64%30.07 "Hg10 mi
9:20 AM59 °FSunny.5 mph72%30.07 "Hg10 mi
8:50 AM55 °FSunny.5 mph77%30.07 "Hg10 mi
8:20 AM54 °FPassing clouds.5 mph82%30.07 "HgN/A
7:50 AM50 °FSunny.5 mph94%30.07 "Hg10 mi
7:20 AM48 °FSunny.5 mph94%30.07 "Hg10 mi
6:50 AM45 °FFog.6 mph93%30.04 "HgN/A
6:20 AM45 °FFog.3 mph93%30.04 "HgN/A
5:50 AM46 °FClear.5 mph87%30.04 "Hg10 mi
5:20 AM46 °FClear.5 mph87%30.04 "Hg10 mi
Weather by CustomWeather, © 2014

See weather overviewHow to use our weather pages